[[{"header":{"parameterUnit":"m.s-1","parameterCategory":1,"la1":30.2991,"la2":30.254,"lo1":-89.0895,"lo2":-89.0444,"dy":0.0017,"dx":0.0017,"nx":28,"ny":28,"refTime":"2025-12-04T09:00:00:Z","depth":0,"parameterNumber":2,"parameterNumberName":"U-component_of_WINDS"},"data":[0,0,0,0,0,0,0,0,0,0,0,0,0,0,0,0,0,0,0,0,0,0,0,0,0,0,0,0,0,0,0,0,0,0,0,0,0,0,0,0,0,0,0,0,0,0,0,0,0,0,0,0,0,0,0,0,0,0,1.1467,1.1466,0,1.1315,1.1313,1.1312,1.1255,1.1255,1.1256,1.1256,1.1094,1.1089,1.1084,0,0,0,0,0,0,0,0,0,0,0,0,0,1.1703,1.1699,1.1468,1.1466,1.1464,1.1315,1.1313,1.1311,1.1254,1.1255,1.1256,1.1256,1.1095,1.109,1.1084,0,0,0,0,0,0,0,0,0,0,0,0,0,1.1581,1.1698,1.1468,1.1418,1.1412,1.1316,1.1313,1.1311,1.1254,1.1255,1.1256,1.1257,1.1097,1.109,1.1083,1.1024,0,0,1.1061,1.1058,0,0,0,0,0,0,0,0,1.1588,1.1572,1.1427,1.1421,1.1414,1.1305,1.1337,1.1214,1.1254,1.1314,1.1256,1.1257,1.1163,1.115,1.112,1.1016,1.1009,1.1061,1.1056,1.1053,1.1051,0,0,0,0,0,0,0,1.1596,1.1578,1.1407,1.1425,1.1417,1.1401,1.1384,1.1313,1.1236,1.1309,1.1304,1.1287,1.116,1.1127,1.1116,1.1007,1.1061,1.1054,1.105,1.1047,1.0845,1.0844,0,0,0,0,0,0,1.1614,1.1586,1.1412,1.1402,1.1505,1.1396,1.1377,1.1339,1.1237,1.1222,1.1287,1.1285,1.1139,1.1124,1.111,1.1032,1.1053,1.1047,1.1042,1.0846,1.0845,1.0843,0,0,0,0,0,0,1.1619,1.1599,1.1418,1.1493,1.1469,1.1391,1.1348,1.1336,1.1303,1.122,1.1205,1.1268,1.1139,1.112,1.1046,1.1026,1.1043,1.1037,1.0847,1.0846,1.0844,1.0878,0,0,0,0,0,0,1.1626,1.1601,1.158,1.1493,1.1465,1.1359,1.1347,1.1332,1.1292,1.1288,1.1199,1.1185,1.1138,1.1057,1.1039,1.1016,1.1031,1.0849,1.0846,1.0845,1.0878,1.0877,1.0877,0,0,0,0,0,1.1635,1.1594,1.1579,1.1558,1.1436,1.1358,1.1341,1.129,1.129,1.1267,1.1213,1.1187,1.1032,1.105,1.1029,1.1004,1.085,1.0847,1.0845,1.0878,1.0878,1.0877,0,0,0,0,0,0,1.1679,1.1582,1.1564,1.1494,1.1435,1.1348,1.1317,1.1292,1.1229,1.1228,1.1166,1.1146,1.1076,1.1033,1.1055,1.094,1.0938,1.0932,1.0971,1.097,1.0969,1.098,1.1025,0,0,0,0,0,1.1681,1.1627,1.1544,1.1491,1.1462,1.1395,1.1359,1.1325,1.126,1.1234,1.1175,1.1111,1.1047,1.1006,1.0943,1.0872,1.085,1.0844,1.0844,1.0844,1.0838,1.0795,1.0791,1.0836,1.0836,1.0836,0,0,1.1684,1.1624,1.1594,1.1498,1.1448,1.1391,1.1374,1.1315,1.1272,1.1224,1.115,1.1105,1.1029,1.0956,1.0921,1.0917,1.0821,1.0841,1.0841,1.0835,1.0792,1.0788,1.0784,1.0834,1.0834,1.0834,0,0,1.1659,1.161,1.1559,1.151,1.1435,1.139,1.1378,1.1295,1.1263,1.1189,1.1152,1.1098,1.099,1.0937,1.0896,1.0852,1.0825,1.0833,1.0829,1.0788,1.0785,1.0781,1.0763,1.0758,1.0828,1.0828,1.0828,0,1.1672,1.1587,1.1536,1.1479,1.1437,1.1393,1.134,1.1294,1.1201,1.1172,1.1171,1.1034,1.098,1.0892,1.0882,1.0851,1.0833,1.0842,1.079,1.0786,1.0782,1.0764,1.0757,1.0829,1.0829,1.0829,1.0829,0,1.1605,1.1547,1.1514,1.1428,1.1382,1.1327,1.1266,1.1226,1.1196,1.115,1.1074,1.1008,1.093,1.0907,1.0876,1.0815,1.0815,1.0803,1.0799,1.078,1.0762,1.0755,1.0831,1.0831,1.083,1.083,0,0,1.1604,1.149,1.1479,1.1438,1.1352,1.1304,1.1247,1.1172,1.1138,1.1075,1.1024,1.0933,1.0921,1.0875,1.0837,1.0802,1.0768,1.0793,1.079,1.0789,1.0693,1.0702,1.0695,1.0751,1.0749,1.0748,1.0699,0,1.1567,1.1464,1.1416,1.1333,1.1277,1.1234,1.1183,1.1123,1.108,1.1024,1.0974,1.0911,1.0901,1.0872,1.0835,1.078,1.0748,1.0783,1.0699,1.0697,1.0718,1.0686,1.0695,1.0652,1.0692,1.0691,1.069,0,1.151,1.1449,1.1361,1.128,1.1255,1.1211,1.1137,1.1086,1.1016,1.0987,1.0935,1.0899,1.0834,1.0837,1.0745,1.077,1.0733,1.0701,1.0698,1.0687,1.0691,1.0672,1.0638,1.0631,1.0679,1.0679,1.068,0,1.1516,1.1412,1.1345,1.1312,1.1216,1.1186,1.1144,1.1076,1.1034,1.0969,1.0941,1.0869,1.0829,1.0774,1.0719,1.0726,1.0631,1.063,1.0603,1.0604,1.0583,1.0585,1.0541,1.0563,1.0563,1.0563,1.0563,0,1.1479,1.1426,1.1346,1.1305,1.1244,1.1188,1.1129,1.1084,1.1023,1.097,1.0929,1.088,1.0811,1.0753,1.071,1.0639,1.0622,1.0594,1.0583,1.0597,1.06,1.057,1.0571,1.0561,1.0561,1.0562,1.0562,0,1.1474,1.1419,1.1343,1.1259,1.1237,1.1195,1.1122,1.1079,1.1034,1.0968,1.0949,1.0877,1.0806,1.0746,1.0653,1.0623,1.0549,1.0537,1.0573,1.0567,1.0542,1.0545,1.0476,1.0463,1.0496,1.0496,1.0495,0,1.1454,1.1412,1.1324,1.1287,1.1246,1.1187,1.1144,1.1087,1.1043,1.0961,1.0927,1.0854,1.0792,1.0681,1.0618,1.0546,1.053,1.0511,1.0519,1.0534,1.0527,1.053,1.0524,1.051,1.051,1.051,1.051,0,1.1422,1.1396,1.1337,1.1268,1.1218,1.116,1.1101,1.1073,1.1004,1.0957,1.0885,1.0838,1.0743,1.0669,1.059,1.0545,1.0515,1.0508,1.0498,1.0511,1.0533,1.0518,1.057,1.051,1.051,1.051,1.051,1.051,1.1407,1.1367,1.1299,1.1234,1.1184,1.1129,1.1085,1.1034,1.0974,1.0893,1.0863,1.0788,1.0718,1.0609,1.0563,1.0503,1.0499,1.0484,1.048,1.0477,1.0478,1.0544,1.0489,1.0488,1.0488,1.0488,1.0488,0,1.1371,1.1325,1.1266,1.1185,1.1133,1.1112,1.1045,1.1003,1.0939,1.0877,1.0817,1.0733,1.0662,1.0594,1.0519,1.0483,1.0467,1.0465,1.0466,1.0455,1.0487,1.0503,1.0479,1.0479,1.0479,1.0479,1.0479,1.0479,1.1347,1.1278,1.1245,1.115,1.1104,1.1032,1.0996,1.0944,1.0894,1.0803,1.0744,1.0701,1.0636,1.0555,1.0488,1.047,1.0443,1.0444,1.0421,1.0452,1.0453,1.0455,1.0469,1.0439,1.0439,1.0394,1.0394,1.0394]},{"header":{"parameterUnit":"m.s-1","parameterCategory":1,"la1":30.2991,"la2":30.254,"lo1":-89.0895,"lo2":-89.0444,"dy":0.0017,"dx":0.0017,"nx":28,"ny":28,"refTime":"2025-12-04T09:00:00:Z","depth":0,"parameterNumber":3,"parameterNumberName":"V-component_of_WINDS"},"data":[0,0,0,0,0,0,0,0,0,0,0,0,0,0,0,0,0,0,0,0,0,0,0,0,0,0,0,0,0,0,0,0,0,0,0,0,0,0,0,0,0,0,0,0,0,0,0,0,0,0,0,0,0,0,0,0,0,0,-3.9808,-3.9808,0,-3.98,-3.9799,-3.9799,-3.9757,-3.9756,-3.9755,-3.9754,-3.9746,-3.9747,-3.9747,0,0,0,0,0,0,0,0,0,0,0,0,0,-3.9789,-3.979,-3.9808,-3.9808,-3.9808,-3.98,-3.9799,-3.9799,-3.9757,-3.9756,-3.9754,-3.9753,-3.9746,-3.9747,-3.9747,0,0,0,0,0,0,0,0,0,0,0,0,0,-3.9791,-3.979,-3.9808,-3.9786,-3.9784,-3.98,-3.9799,-3.9799,-3.9757,-3.9756,-3.9754,-3.9753,-3.9745,-3.9746,-3.9748,-3.9785,0,0,-3.9751,-3.9751,0,0,0,0,0,0,0,0,-3.9791,-3.9792,-3.9789,-3.9787,-3.9785,-3.9778,-3.979,-3.9794,-3.9758,-3.9767,-3.9754,-3.9752,-3.9758,-3.9758,-3.9759,-3.9784,-3.9784,-3.9751,-3.9752,-3.9752,-3.9752,0,0,0,0,0,0,0,-3.9791,-3.9792,-3.9805,-3.9789,-3.9787,-3.9777,-3.9775,-3.9791,-3.9771,-3.9766,-3.9763,-3.9763,-3.9756,-3.9759,-3.9759,-3.9784,-3.9751,-3.9752,-3.9753,-3.9753,-3.9838,-3.984,0,0,0,0,0,0,-3.9794,-3.9792,-3.9805,-3.9805,-3.9784,-3.9778,-3.9776,-3.9782,-3.9771,-3.9768,-3.9764,-3.9761,-3.9757,-3.9758,-3.9759,-3.9801,-3.9752,-3.9753,-3.9754,-3.9837,-3.9839,-3.984,0,0,0,0,0,0,-3.9793,-3.9795,-3.9805,-3.9797,-3.9798,-3.978,-3.9786,-3.9782,-3.9784,-3.9769,-3.9766,-3.977,-3.9756,-3.9757,-3.9778,-3.98,-3.9754,-3.9755,-3.9835,-3.9837,-3.984,-3.9886,0,0,0,0,0,0,-3.9793,-3.9795,-3.9809,-3.9798,-3.9798,-3.9825,-3.9787,-3.9783,-3.9786,-3.9782,-3.9773,-3.9771,-3.9755,-3.9777,-3.9779,-3.98,-3.9756,-3.9833,-3.9836,-3.9839,-3.9882,-3.9889,-3.9895,0,0,0,0,0,-3.9793,-3.9823,-3.981,-3.9812,-3.9815,-3.9826,-3.9827,-3.9808,-3.9788,-3.9802,-3.9792,-3.9771,-3.9797,-3.9779,-3.9782,-3.9804,-3.9831,-3.9835,-3.9839,-3.9879,-3.9888,-3.9895,0,0,0,0,0,0,-3.9837,-3.9821,-3.9806,-3.9834,-3.9832,-3.9819,-3.9836,-3.9818,-3.9822,-3.9817,-3.9794,-3.9793,-3.9817,-3.9813,-3.9793,-3.9839,-3.9811,-3.9815,-3.9841,-3.9849,-3.9856,-3.9856,-3.9756,0,0,0,0,0,-3.985,-3.986,-3.9846,-3.9871,-3.9871,-3.9854,-3.9858,-3.9844,-3.9841,-3.984,-3.9831,-3.983,-3.9838,-3.9843,-3.985,-3.9882,-3.9879,-3.9898,-3.9905,-3.991,-3.9914,-3.993,-3.9938,-3.9852,-3.9852,-3.9852,0,0,-3.9877,-3.9869,-3.9877,-3.988,-3.9877,-3.9888,-3.9853,-3.9867,-3.9875,-3.9842,-3.9861,-3.9855,-3.9852,-3.9879,-3.989,-3.9875,-3.9937,-3.9915,-3.9919,-3.992,-3.9934,-3.9942,-3.995,-3.9855,-3.9854,-3.9854,0,0,-3.9932,-3.9927,-3.9948,-3.9945,-3.994,-3.9929,-3.9934,-3.9924,-3.9918,-3.9937,-3.9913,-3.9923,-3.9937,-3.9935,-3.9936,-3.9991,-3.9971,-3.9993,-4.0028,-4.0044,-4.0051,-4.0056,-4.0075,-4.0082,-3.9997,-3.9997,-3.9998,0,-3.9966,-3.9981,-3.9961,-3.9975,-3.9977,-3.9948,-3.9968,-3.9967,-3.9965,-3.9967,-3.9951,-3.9968,-3.9964,-3.9989,-4.0002,-4.0005,-4.0009,-3.9994,-4.0051,-4.0057,-4.0062,-4.0079,-4.0087,-4.0,-4.0,-4.0,-3.9999,0,-4.0023,-4.0034,-4.0051,-4.0049,-4.0053,-4.0071,-4.0054,-4.006,-4.0046,-4.0036,-4.0056,-4.005,-4.0054,-4.0059,-4.0046,-4.0083,-4.0074,-4.0055,-4.0026,-4.0073,-4.0089,-4.0096,-4.0004,-4.0003,-4.0002,-4.0002,0,0,-4.0105,-4.0091,-4.0098,-4.0096,-4.0089,-4.0097,-4.0114,-4.0118,-4.0124,-4.0124,-4.0137,-4.015,-4.0132,-4.0133,-4.0119,-4.0133,-4.0176,-4.0112,-4.0112,-4.0124,-4.0216,-4.023,-4.0238,-4.0164,-4.0165,-4.0166,-4.0216,0,-4.0156,-4.0183,-4.0165,-4.0194,-4.0204,-4.0177,-4.0191,-4.0189,-4.018,-4.0188,-4.0179,-4.0188,-4.0164,-4.0164,-4.0177,-4.0168,-4.0194,-4.0164,-4.0175,-4.0176,-4.0176,-4.0246,-4.026,-4.0308,-4.0222,-4.0223,-4.0224,0,-4.0219,-4.0221,-4.0252,-4.0242,-4.0245,-4.0259,-4.0261,-4.0268,-4.0265,-4.0258,-4.0259,-4.0242,-4.0258,-4.023,-4.0252,-4.0232,-4.0236,-4.0232,-4.0233,-4.0233,-4.0202,-4.0246,-4.0323,-4.033,-4.0234,-4.0233,-4.0232,0,-4.0274,-4.0285,-4.0304,-4.0304,-4.0294,-4.0303,-4.03,-4.0295,-4.0298,-4.03,-4.0302,-4.0307,-4.0309,-4.0313,-4.0297,-4.0279,-4.032,-4.0292,-4.0315,-4.0315,-4.0323,-4.0323,-4.0401,-4.0328,-4.0328,-4.0328,-4.0328,0,-4.0333,-4.0352,-4.0329,-4.0341,-4.0362,-4.0341,-4.0363,-4.0357,-4.0352,-4.0363,-4.034,-4.035,-4.0329,-4.0338,-4.0326,-4.0345,-4.0346,-4.0341,-4.0337,-4.0342,-4.0343,-4.0343,-4.0339,-4.033,-4.0329,-4.0329,-4.0329,0,-4.0398,-4.0383,-4.0402,-4.039,-4.0388,-4.0404,-4.0394,-4.0405,-4.0395,-4.0408,-4.041,-4.0395,-4.0404,-4.0389,-4.0396,-4.0388,-4.0414,-4.0406,-4.0415,-4.0412,-4.0435,-4.0433,-4.0515,-4.0524,-4.0447,-4.0448,-4.0449,0,-4.0435,-4.045,-4.044,-4.0444,-4.0442,-4.045,-4.0453,-4.0434,-4.0439,-4.0436,-4.0447,-4.0454,-4.0457,-4.0473,-4.0462,-4.0468,-4.0459,-4.0487,-4.0459,-4.0464,-4.0458,-4.0457,-4.0458,-4.0492,-4.0493,-4.0494,-4.0495,0,-4.0504,-4.0495,-4.0501,-4.0503,-4.0508,-4.0509,-4.0509,-4.0514,-4.0494,-4.05,-4.0508,-4.0511,-4.0518,-4.0525,-4.0527,-4.0524,-4.0506,-4.0504,-4.0509,-4.0514,-4.0518,-4.0515,-4.0429,-4.0502,-4.0501,-4.0501,-4.05,-4.05,-4.0555,-4.0566,-4.0561,-4.0567,-4.0565,-4.0565,-4.0574,-4.0566,-4.0572,-4.0575,-4.0564,-4.0575,-4.0571,-4.0573,-4.0571,-4.0579,-4.0567,-4.0575,-4.0577,-4.0579,-4.0582,-4.0518,-4.058,-4.058,-4.058,-4.058,-4.0579,0,-4.0622,-4.0617,-4.0623,-4.0623,-4.0628,-4.061,-4.0609,-4.0615,-4.0624,-4.0622,-4.0626,-4.0636,-4.0642,-4.0633,-4.0637,-4.0646,-4.0638,-4.0648,-4.0646,-4.0646,-4.0593,-4.0588,-4.0654,-4.0654,-4.0654,-4.0654,-4.0654,-4.0654,-4.0656,-4.0674,-4.0665,-4.0682,-4.0677,-4.0686,-4.0687,-4.0687,-4.0685,-4.0696,-4.0701,-4.0695,-4.069,-4.0694,-4.0699,-4.0696,-4.0699,-4.0711,-4.0705,-4.0657,-4.0649,-4.0642,-4.0637,-4.0712,-4.0712,-4.0757,-4.0757,-4.0757]}]]